Wind_Speed
14 14 15 16 14 14 12 12 12 12 10 9 11 10 11 10 9 10 11 12 12 14 15 16 16 16 16 15 14 13 13 12 11 11 12 12 11 11 12 12 13 13 14 14 14 16 16 15 13
14 14 15 15 14 12 9 11 13 12 9 9 11 11 12 10 9 10 12 13 14 16 17 18 18 18 16 13 14 14 13 13 12 11 12 13 13 13 13 13 14 14 15 15 16 16 17 16 14
18 17 16 16 16 14 10 13 13 13 10 9 11 12 13 12 11 12 14 17 16 18 20 20 20 19 16 14 13 14 14 14 13 13 13 13 14 14 14 14 15 15 16 16 17 17 18 17 16
21 21 20 19 20 18 14 17 16 16 11 11 13 14 17 16 14 15 15 18 19 21 22 21 20 20 17 15 14 14 14 14 14 13 13 14 14 14 15 15 15 15 16 17 18 18 18 18 18
25 23 23 24 22 19 17 19 18 15 13 12 14 15 17 18 16 17 17 19 21 21 21 21 21 20 18 16 15 15 16 15 14 14 14 14 15 15 16 16 16 16 17 18 18 19 19 20 20
29 27 25 24 23 19 18 18 19 21 19 16 15 17 20 21 17 18 18 19 22 20 20 20 21 20 19 17 16 16 17 17 16 14 16 15 16 16 16 17 18 18 19 19 19 20 20 21 21
31 29 27 28 24 18 17 20 13 17 21 18 18 18 21 23 20 19 18 19 20 20 20 21 21 20 18 17 17 17 18 17 17 17 17 17 17 18 18 19 19 19 20 20 20 21 22 22 21
34 31 29 29 26 27 24 22 24 18 21 20 19 18 21 25 26 22 20 20 21 23 24 22 21 19 19 18 17 18 18 18 18 19 19 19 20 20 20 21 22 22 22 22 22 23 24 25 24
37 35 28 28 30 27 27 23 23 22 24 22 18 18 21 25 29 27 24 21 20 21 27 24 22 21 19 18 20 20 21 20 20 21 22 21 22 23 23 24 24 25 25 26 26 25 26 26 26
39 37 28 31 33 30 30 25 24 23 18 18 19 19 22 24 25 26 27 21 19 19 24 23 22 23 21 21 21 22 22 22 22 23 24 26 26 26 27 28 28 28 28 29 29 28 28 27 27
40 37 30 32 35 33 28 24 23 28 21 18 22 23 23 24 25 26 25 22 16 18 21 21 21 21 22 20 22 24 25 24 25 26 27 28 29 31 31 31 31 31 31 32 32 32 31 30 29
42 37 33 35 38 34 31 28 24 23 25 25 25 26 26 27 27 27 27 22 18 17 19 18 18 22 23 23 24 26 28 27 28 28 29 30 31 33 33 33 33 33 33 34 34 35 34 33 33
44 40 36 35 39 33 29 29 28 28 27 26 30 29 27 27 27 27 27 25 21 18 17 18 20 21 22 24 26 27 29 29 30 31 32 32 32 33 33 34 34 35 36 36 37 37 37 36 36
46 43 38 37 38 33 33 30 28 26 29 34 32 31 30 29 29 29 28 28 25 23 22 21 20 21 23 25 26 27 29 30 32 33 33 33 34 34 34 35 36 37 38 39 39 39 38 38 38
50 46 42 40 41 36 35 34 31 32 33 30 33 29 27 30 31 33 30 29 26 23 23 24 26 24 25 27 29 30 31 32 33 34 35 35 36 37 37 38 38 39 40 40 40 39 39 39 39
52 50 46 44 42 39 36 35 36 35 32 30 31 32 31 32 38 40 36 29 28 24 24 23 27 26 29 31 32 33 34 34 35 36 36 37 38 38 38 39 39 39 41 41 41 41 42 41 40
54 51 48 46 43 40 36 34 34 35 34 33 35 34 26 32 37 43 37 29 26 24 26 26 27 27 30 33 34 35 36 37 37 38 37 37 37 38 37 38 39 40 41 42 43 44 45 45 45
54 52 50 47 43 39 37 37 35 34 35 36 34 34 33 30 30 36 35 32 26 25 26 26 28 29 32 35 36 37 37 37 37 37 36 36 37 37 37 38 40 42 43 45 46 47 48 49 49
51 49 45 42 41 40 40 39 36 35 38 38 38 31 29 32 35 31 33 29 22 26 29 28 30 30 33 36 37 35 36 35 35 36 36 36 37 38 39 40 42 44 47 49 50 52 53 54 55
47 43 42 42 41 42 41 36 34 34 32 33 29 29 33 35 27 18 26 26 23 26 28 29 31 31 32 34 33 33 34 35 36 36 37 39 40 42 43 45 46 48 50 52 54 56 57 58 59
42 41 39 38 37 38 38 38 37 36 34 30 25 29 32 27 22 19 21 20 25 28 28 29 33 31 32 33 34 35 37 38 39 40 40 41 42 43 45 47 50 52 54 56 58 59 60 62 63
39 35 35 37 35 35 35 35 35 35 32 22 20 28 28 23 22 23 23 24 26 29 30 29 31 32 34 36 37 38 39 40 40 42 44 45 47 48 50 51 52 51 49 51 53 55 57 58 60
32 36 35 33 33 30 28 29 25 31 31 23 24 26 26 24 22 24 25 25 27 29 31 32 32 33 35 37 38 40 42 44 45 46 46 47 48 47 47 48 49 50 52 55 57 59 62 63 62
29 30 31 31 32 34 32 31 30 26 23 24 26 26 26 25 25 24 25 26 27 29 31 32 32 34 36 38 40 41 41 41 42 43 45 48 49 50 53 55 57 59 60 63 65 68 69 68 69
30 32 32 32 35 36 25 29 24 19 20 22 24 23 22 23 24 24 25 27 28 30 32 35 37 39 38 38 37 35 38 41 45 49 51 53 56 58 60 61 63 65 69 71 74 75 75 75 74
26 27 30 29 28 22 22 26 23 20 21 22 24 24 22 21 22 24 25 27 28 31 33 34 35 35 33 35 40 43 47 48 51 54 55 58 61 63 64 65 69 75 77 79 79 80 81 81 80
26 28 25 24 23 22 23 21 21 21 20 21 22 20 20 21 23 24 26 28 30 29 29 28 30 35 39 43 47 50 53 56 58 59 61 62 64 65 67 72 77 79 80 81 82 82 80 81 80
23 22 23 23 22 21 20 20 21 18 18 20 20 20 21 24 24 27 28 26 25 24 29 33 37 41 45 49 52 55 57 60 61 63 65 66 66 69 74 78 80 81 82 81 79 78 78 78 78
18 21 23 24 20 21 21 20 18 19 20 20 20 21 23 25 27 27 24 22 27 32 36 40 44 46 50 54 57 60 61 62 64 66 68 69 72 76 79 81 80 79 76 77 77 77 77 77 76
16 19 20 22 21 21 21 22 19 20 21 21 21 22 25 28 26 23 22 27 33 38 42 44 47 52 55 57 59 61 61 63 66 68 71 74 77 79 79 77 73 73 74 76 77 78 79 80 80
Wind_Direction
222 226 231 233 226 231 236 243 254 255 251 255 260 268 278 282 290 293 298 299 309 310 312 310 309 309 309 308 308 306 303 303 305 305 306 308 310 313 315 316 317 319 319 320 320 320 322 324 324
222 222 227 234 231 233 241 255 256 259 263 263 266 266 269 274 278 283 289 297 301 305 308 307 307 306 304 300 300 298 297 297 298 295 298 300 305 307 307 308 310 312 312 311 311 312 314 316 316
226 228 231 236 237 237 230 248 262 264 260 262 275 279 275 271 276 281 285 294 298 302 306 304 303 304 299 294 292 291 294 295 293 293 297 300 302 301 302 304 306 308 306 306 306 306 307 308 308
231 233 237 239 243 246 244 254 258 255 259 270 272 271 277 279 277 282 287 292 296 300 302 301 301 299 292 287 288 289 292 292 291 294 294 295 294 293 296 299 303 306 307 306 305 305 304 303 302
234 235 237 244 248 248 253 259 263 256 263 272 277 275 272 271 269 270 274 282 287 294 297 297 294 292 287 284 287 289 289 289 290 290 290 290 291 290 294 298 300 303 303 304 303 302 301 301 301
234 235 239 243 250 248 251 259 250 269 272 266 275 280 277 274 272 270 275 278 284 290 292 291 290 289 282 281 285 287 285 288 286 286 287 291 289 289 290 294 298 300 300 299 299 298 297 299 300
235 233 235 243 247 245 247 247 247 264 269 271 275 274 276 275 273 275 276 278 282 284 286 285 286 285 276 274 279 283 283 279 280 282 284 288 286 287 289 292 293 294 294 295 296 295 294 294 295
237 234 234 240 245 247 243 247 244 246 260 266 261 265 265 270 272 273 274 279 285 288 286 284 283 281 271 268 269 275 275 279 278 281 283 285 287 289 290 289 288 289 290 290 289 288 288 290 289
237 235 229 238 244 248 248 253 249 248 262 271 274 271 264 265 270 274 275 279 284 290 290 290 290 281 273 267 267 269 272 277 281 282 284 285 285 286 287 286 285 285 285 284 284 284 283 284 285
239 237 225 233 241 240 250 253 262 259 265 282 290 283 279 275 272 273 276 280 287 281 282 288 281 277 273 268 268 271 273 278 281 282 283 283 284 283 283 283 283 282 281 281 281 281 281 281 281
240 238 226 232 242 248 244 253 259 270 263 283 291 291 287 283 282 278 275 280 284 276 279 282 280 280 281 280 278 277 277 278 280 281 281 282 283 284 284 283 281 280 279 279 279 278 277 277 276
239 237 229 230 240 242 249 243 246 256 268 280 284 286 289 285 282 282 284 286 286 280 283 283 283 277 282 283 278 277 276 278 278 279 281 282 282 282 282 281 280 279 278 278 277 277 277 276 275
238 236 229 229 242 245 249 251 255 259 267 267 278 282 283 284 284 284 287 290 291 289 287 277 276 279 283 283 285 287 286 288 289 288 287 285 284 283 281 280 280 279 278 277 277 276 276 276 275
237 236 234 229 235 241 247 249 251 259 261 269 279 288 300 303 302 298 293 292 296 297 294 287 273 285 286 285 287 287 289 289 289 290 289 289 287 286 284 282 280 279 278 277 275 275 274 273 272
231 232 232 229 232 232 241 248 249 254 264 272 287 297 302 303 306 300 292 288 292 293 290 288 286 296 291 288 290 292 293 293 292 292 291 290 288 287 285 284 282 282 280 278 277 276 276 274 272
231 231 230 232 230 233 233 243 256 257 262 277 278 289 296 289 301 302 286 287 289 290 287 281 292 297 296 295 296 295 295 294 293 291 289 288 287 286 286 285 284 282 281 280 279 278 276 275 273
229 232 231 232 232 233 238 242 251 260 265 267 275 283 291 300 299 294 281 287 284 284 287 292 296 299 296 294 295 294 294 293 292 291 291 290 290 290 288 287 285 283 282 281 280 278 276 275 274
230 231 231 232 234 235 238 242 246 254 265 268 266 272 279 300 303 295 286 280 283 285 290 296 297 296 294 292 290 292 293 292 293 293 293 293 292 290 288 287 284 283 281 279 277 276 276 275 273
229 231 234 235 236 236 235 240 247 255 258 269 280 287 291 292 294 307 271 268 280 291 295 297 293 291 288 287 290 293 293 293 292 292 291 290 288 287 285 283 283 281 280 279 279 278 278 278 277
227 230 231 233 233 234 236 239 246 251 262 266 275 288 285 282 298 302 277 270 277 285 292 289 286 284 284 289 292 290 290 290 289 289 289 288 288 287 287 286 284 283 282 282 282 281 281 280 279
224 226 228 233 236 239 241 238 241 250 266 274 281 281 283 289 292 286 282 282 284 285 285 286 286 287 288 288 288 289 290 291 291 291 290 288 286 285 285 285 284 284 285 285 285 285 285 284 284
222 224 225 229 233 240 244 247 246 247 255 281 277 281 286 290 294 288 284 285 281 280 283 283 285 290 291 292 294 295 293 291 292 291 289 288 287 286 285 284 284 285 288 289 290 289 287 285 284
220 224 225 229 232 231 236 243 240 251 262 269 270 277 281 285 280 280 282 280 280 282 284 287 289 290 289 290 290 290 290 291 291 289 288 287 285 284 283 284 284 283 284 288 289 292 291 288 285
214 220 221 225 231 240 245 254 252 258 263 266 270 276 279 279 279 279 279 282 284 285 287 290 291 291 291 292 294 295 295 294 294 294 295 294 292 289 287 288 288 287 286 289 290 292 290 286 282
211 213 218 224 232 243 247 252 261 255 259 263 266 266 269 271 275 282 286 287 289 293 296 296 295 295 296 295 294 293 296 296 295 296 294 293 292 289 286 286 288 290 291 292 292 291 290 286 283
208 208 208 221 236 248 245 254 265 265 258 258 263 269 271 274 278 280 285 289 293 295 295 295 295 296 298 299 298 297 295 295 294 293 293 291 290 290 289 290 292 294 293 291 290 289 287 285 283
208 216 217 226 235 240 245 252 255 259 262 270 273 278 281 281 283 286 289 293 297 296 295 298 300 300 298 297 297 296 296 296 296 296 294 292 291 289 290 293 294 292 291 291 290 289 289 287 286
200 208 215 218 231 238 246 254 262 265 271 274 275 280 282 284 287 291 296 298 293 291 295 297 300 301 300 300 299 298 297 296 295 294 293 292 290 290 290 291 291 291 292 292 291 289 287 285 283
188 205 209 215 220 238 252 257 259 265 267 268 278 283 283 286 290 294 295 291 294 296 298 300 301 301 302 303 303 300 298 297 296 295 294 293 292 291 291 292 294 295 294 292 289 287 286 284 282
205 212 223 227 233 244 254 257 263 263 269 278 280 278 282 285 292 293 292 294 294 295 300 302 304 306 305 304 301 299 297 294 293 292 292 292 292 293 295 297 296 293 291 290 288 286 284 283 281
Height
5895 5896 5896 5897 5899 5897 5898 5898 5898 5898 5900 5899 5898 5899 5899 5900 5901 5901 5898 5898 5898 5897 5896 5895 5894 5893 5892 5890 5890 5889 5889 5887 5886 5885 5885 5883 5882 5881 5880 5879 5878 5877 5876 5875 5874 5872 5871 5870 5870
5894 5894 5894 5894 5896 5895 5897 5896 5895 5895 5898 5897 5897 5897 5897 5898 5898 5898 5896 5896 5896 5895 5894 5893 5891 5890 5889 5889 5888 5888 5887 5886 5885 5884 5883 5882 5881 5879 5878 5877 5876 5875 5874 5873 5872 5870 5869 5868 5868
5891 5891 5892 5891 5892 5893 5895 5893 5893 5893 5896 5896 5895 5895 5895 5896 5897 5896 5895 5893 5893 5893 5891 5890 5889 5888 5887 5887 5886 5886 5885 5884 5883 5882 5881 5880 5879 5877 5876 5875 5874 5873 5872 5871 5869 5868 5867 5866 5865
5888 5889 5890 5888 5889 5891 5893 5891 5892 5892 5892 5894 5893 5893 5892 5892 5895 5894 5892 5890 5890 5889 5888 5887 5886 5886 5885 5884 5884 5884 5883 5882 5881 5880 5879 5878 5877 5876 5874 5873 5871 5870 5869 5868 5867 5866 5864 5863 5862
5884 5884 5885 5884 5886 5889 5890 5889 5890 5889 5890 5890 5890 5890 5890 5889 5891 5890 5890 5888 5887 5886 5885 5884 5883 5882 5882 5882 5881 5881 5880 5879 5878 5877 5876 5875 5874 5873 5872 5870 5869 5868 5867 5866 5864 5863 5861 5860 5859
5879 5881 5881 5881 5881 5886 5887 5886 5887 5886 5887 5888 5888 5887 5885 5884 5887 5886 5885 5884 5882 5882 5881 5880 5880 5879 5879 5879 5878 5877 5876 5876 5875 5874 5873 5873 5871 5870 5869 5867 5866 5865 5864 5863 5861 5860 5858 5857 5856
5874 5875 5877 5876 5878 5881 5882 5882 5883 5883 5881 5884 5885 5883 5882 5879 5881 5881 5880 5880 5879 5878 5877 5876 5876 5875 5875 5875 5874 5874 5873 5872 5871 5870 5869 5869 5868 5866 5865 5864 5863 5862 5861 5860 5858 5856 5855 5854 5853
5868 5870 5872 5873 5874 5875 5877 5877 5878 5879 5878 5881 5881 5879 5878 5876 5875 5877 5877 5877 5875 5874 5872 5872 5872 5871 5870 5871 5871 5870 5870 5869 5868 5866 5866 5866 5864 5863 5862 5860 5859 5858 5857 5856 5854 5853 5852 5850 5849
5861 5864 5867 5868 5868 5870 5872 5873 5873 5874 5874 5874 5875 5875 5874 5873 5871 5872 5873 5874 5873 5872 5867 5867 5866 5866 5866 5866 5866 5865 5864 5864 5864 5863 5862 5861 5860 5859 5857 5856 5854 5853 5852 5850 5849 5849 5848 5846 5845
5854 5858 5862 5861 5861 5863 5864 5868 5868 5869 5868 5868 5869 5870 5869 5868 5868 5868 5867 5871 5872 5870 5865 5864 5863 5861 5861 5861 5860 5860 5859 5860 5859 5858 5857 5856 5855 5854 5852 5850 5848 5847 5846 5846 5845 5844 5843 5842 5841
5847 5853 5857 5856 5856 5858 5861 5862 5865 5865 5864 5865 5864 5864 5866 5864 5863 5862 5863 5866 5867 5866 5863 5860 5858 5857 5855 5856 5855 5854 5854 5854 5854 5853 5852 5851 5849 5847 5845 5844 5843 5841 5840 5839 5838 5838 5837 5837 5835
5840 5846 5850 5852 5851 5854 5856 5858 5859 5861 5862 5862 5860 5860 5861 5861 5859 5857 5856 5859 5861 5860 5859 5856 5855 5852 5851 5851 5850 5850 5849 5848 5848 5847 5846 5844 5842 5840 5839 5838 5836 5835 5834 5833 5832 5831 5830 5829 5828
5833 5838 5843 5846 5846 5851 5853 5855 5855 5856 5858 5858 5857 5858 5857 5857 5856 5854 5852 5852 5853 5854 5853 5852 5851 5849 5848 5846 5845 5843 5842 5841 5840 5839 5838 5837 5835 5834 5832 5831 5829 5828 5827 5826 5825 5824 5823 5822 5821
5825 5831 5836 5840 5841 5845 5847 5849 5851 5853 5853 5852 5853 5853 5854 5853 5852 5851 5849 5847 5846 5846 5846 5845 5844 5843 5842 5841 5840 5838 5837 5835 5833 5832 5830 5829 5827 5826 5824 5823 5822 5820 5819 5819 5817 5816 5815 5814 5812
5814 5821 5826 5831 5834 5839 5841 5843 5845 5847 5848 5848 5848 5849 5849 5848 5848 5847 5846 5844 5844 5843 5841 5840 5839 5838 5836 5834 5833 5831 5829 5828 5827 5825 5823 5821 5819 5818 5816 5814 5813 5812 5811 5810 5808 5807 5806 5805 5804
5806 5812 5818 5822 5827 5831 5836 5839 5840 5841 5842 5843 5843 5844 5844 5843 5842 5842 5841 5840 5838 5837 5835 5834 5833 5831 5829 5826 5825 5823 5822 5821 5819 5818 5816 5813 5812 5810 5807 5806 5804 5802 5801 5800 5799 5798 5797 5796 5795
5796 5803 5810 5815 5820 5825 5829 5833 5835 5836 5837 5837 5836 5838 5838 5837 5835 5833 5835 5834 5833 5831 5828 5826 5825 5824 5822 5820 5818 5817 5816 5814 5811 5810 5808 5805 5802 5801 5799 5796 5794 5793 5792 5791 5789 5788 5787 5786 5785
5790 5796 5802 5809 5816 5820 5823 5826 5828 5830 5830 5830 5831 5832 5831 5831 5829 5829 5829 5829 5826 5823 5822 5821 5820 5819 5816 5814 5812 5811 5809 5806 5803 5800 5798 5796 5794 5791 5790 5788 5786 5784 5782 5780 5779 5777 5776 5774 5774
5783 5791 5798 5805 5810 5814 5817 5819 5822 5824 5824 5824 5825 5826 5825 5825 5823 5822 5823 5822 5821 5820 5818 5816 5814 5812 5811 5808 5806 5803 5800 5798 5795 5792 5789 5787 5785 5783 5780 5778 5776 5774 5771 5769 5767 5765 5764 5761 5760
5778 5785 5790 5795 5800 5804 5808 5814 5816 5816 5819 5819 5819 5818 5819 5819 5819 5818 5817 5816 5815 5813 5813 5811 5809 5806 5803 5800 5798 5795 5792 5790 5787 5784 5781 5778 5775 5772 5769 5767 5765 5762 5759 5757 5754 5752 5751 5749 5746
5771 5778 5784 5790 5794 5798 5802 5806 5810 5811 5813 5815 5814 5813 5814 5815 5813 5813 5812 5808 5808 5806 5804 5802 5800 5797 5794 5792 5790 5787 5784 5780 5778 5775 5772 5769 5766 5763 5759 5756 5752 5749 5746 5743 5739 5736 5734 5732 5729
5766 5774 5779 5782 5788 5792 5795 5799 5803 5806 5807 5810 5810 5808 5808 5808 5806 5805 5803 5802 5800 5798 5795 5793 5791 5788 5785 5783 5780 5777 5774 5772 5768 5764 5760 5756 5753 5750 5746 5742 5738 5735 5731 5728 5724 5721 5718 5715 5712
5764 5768 5775 5780 5782 5785 5789 5792 5799 5800 5803 5804 5803 5803 5803 5802 5801 5799 5796 5794 5792 5789 5787 5787 5785 5782 5779 5775 5772 5769 5765 5761 5758 5754 5750 5746 5742 5738 5734 5729 5726 5722 5719 5715 5711 5707 5703 5699 5695
5760 5765 5771 5774 5777 5779 5785 5788 5792 5795 5797 5796 5796 5797 5795 5794 5792 5791 5789 5787 5785 5783 5781 5779 5777 5774 5771 5767 5763 5758 5753 5749 5745 5741 5737 5733 5728 5724 5720 5716 5711 5707 5703 5698 5693 5688 5684 5680 5677
5755 5759 5764 5769 5770 5774 5780 5781 5786 5789 5789 5790 5790 5790 5789 5787 5786 5784 5781 5779 5777 5775 5772 5769 5766 5763 5759 5756 5752 5749 5745 5741 5736 5731 5725 5720 5714 5708 5703 5698 5693 5688 5682 5677 5672 5667 5662 5657 5654
5752 5757 5759 5763 5767 5773 5774 5775 5780 5782 5784 5784 5783 5783 5782 5780 5779 5777 5775 5774 5771 5768 5765 5761 5757 5753 5750 5747 5743 5738 5733 5728 5723 5718 5712 5705 5698 5691 5685 5679 5673 5667 5660 5653 5647 5643 5637 5632 5628
5749 5752 5756 5761 5764 5766 5769 5773 5774 5776 5777 5777 5775 5775 5774 5773 5772 5771 5769 5766 5763 5760 5756 5752 5748 5744 5739 5735 5730 5725 5719 5712 5706 5700 5695 5688 5681 5674 5667 5660 5653 5645 5637 5630 5624 5619 5614 5608 5604
5747 5752 5755 5758 5760 5762 5765 5767 5769 5770 5770 5769 5768 5768 5767 5766 5765 5763 5761 5758 5755 5751 5748 5744 5740 5735 5729 5723 5717 5711 5705 5698 5690 5683 5676 5669 5662 5655 5648 5640 5632 5625 5617 5609 5602 5597 5590 5585 5580
5745 5748 5751 5754 5757 5758 5760 5762 5764 5764 5764 5764 5764 5763 5761 5759 5758 5755 5753 5750 5747 5743 5739 5735 5730 5724 5718 5711 5703 5695 5687 5679 5673 5665 5657 5650 5642 5634 5626 5618 5610 5602 5595 5587 5579 5573 5567 5560 5556
5742 5746 5748 5750 5754 5755 5756 5758 5758 5758 5759 5759 5759 5757 5755 5753 5751 5749 5746 5743 5739 5735 5731 5725 5717 5711 5704 5696 5688 5680 5672 5664 5656 5648 5639 5631 5622 5613 5604 5596 5589 5580 5572 5564 5555 5548 5541 5535 5530